GFSMA_850_thetae_021.txt.gz
Theta_e
325 326 326 325 324 323 319 321 322 322 321 322 323 324 325 326 326 325 312 313 322 319 323 333 337 338 338 340 340 337 335 333 330 329 330 327 327 326 329 331 328 324 320
326 325 326 325 324 324 321 321 320 319 323 322 324 323 324 325 325 325 310 313 323 320 323 333 336 338 339 339 335 329 329 334 331 330 328 327 326 330 330 326 322 316 312
327 326 325 325 325 325 323 321 321 319 321 322 323 323 324 325 319 312 308 322 325 320 323 333 336 338 338 339 337 337 332 334 331 330 327 328 331 329 325 320 313 311 311
327 326 327 325 324 325 324 321 322 320 322 323 323 323 324 321 316 309 316 325 324 320 327 333 336 338 338 339 339 335 335 334 331 329 329 327 329 325 317 312 312 310 307
327 327 327 326 324 324 324 320 322 321 322 323 323 324 322 322 312 320 326 326 323 324 330 333 334 338 339 338 335 333 334 333 330 329 327 327 325 314 312 312 310 307 307
328 328 328 326 323 323 322 320 322 321 322 323 323 322 320 320 320 326 326 327 327 329 330 332 334 330 333 334 332 334 333 332 329 328 327 324 313 313 316 312 307 307 309
328 328 327 325 322 321 319 323 322 322 322 323 323 323 322 318 325 326 325 327 327 327 329 330 334 330 328 336 333 332 332 331 328 327 324 312 318 324 324 316 308 309 310
328 327 326 325 322 320 321 323 322 322 323 323 324 324 324 323 325 325 325 325 327 326 327 331 333 333 331 330 330 332 332 330 327 324 315 320 325 326 323 308 308 310 310
326 325 325 324 320 321 322 322 321 322 322 324 323 324 324 325 326 326 326 327 328 328 328 332 332 330 329 330 334 333 331 327 327 318 319 325 324 323 309 310 309 310 310
326 323 324 321 321 323 322 322 321 322 323 323 323 323 322 324 329 328 328 328 328 331 330 332 332 331 331 330 332 331 328 330 320 319 325 322 324 313 310 309 310 311 309
326 322 322 322 323 322 322 322 321 321 323 323 322 323 324 326 324 327 328 331 330 330 331 331 332 332 330 330 331 330 329 320 321 323 322 324 321 314 311 310 310 311 309
326 323 323 322 321 322 322 322 322 323 323 324 323 323 325 325 323 327 328 329 330 330 331 327 330 331 328 331 329 330 323 323 322 323 324 325 319 314 311 310 311 310 309
325 323 322 322 322 322 322 323 323 324 324 324 324 324 325 324 322 327 329 330 331 331 330 326 329 328 327 330 328 325 324 323 324 326 326 324 315 313 311 310 311 310 309
324 323 323 324 324 324 324 324 324 324 324 325 325 324 325 325 326 327 329 329 329 329 329 329 328 326 329 329 326 323 323 325 325 325 322 318 315 313 310 311 310 310 310
322 322 324 324 324 324 324 324 324 324 324 325 325 324 324 327 327 327 328 329 329 329 329 329 327 328 327 326 325 324 324 325 324 322 323 324 316 311 311 311 310 311 312
322 321 323 324 324 324 324 324 324 325 325 325 324 325 326 327 328 325 327 327 325 327 329 329 328 327 326 325 325 325 326 326 325 325 322 315 311 313 314 310 311 312 313
322 321 322 324 325 323 323 324 324 325 325 325 326 326 325 327 328 325 325 325 327 328 328 328 328 326 326 325 326 326 326 326 325 323 315 311 312 312 311 311 312 313 315
321 321 321 324 322 323 324 325 325 325 324 325 325 327 328 328 328 325 326 325 328 328 328 328 327 325 325 325 326 326 326 325 323 317 313 311 311 311 311 313 315 317 318
322 320 320 320 321 324 325 324 324 323 326 325 328 328 329 328 327 327 327 326 328 328 328 327 327 327 325 326 326 326 326 324 320 315 311 310 311 314 317 319 320 320 320
325 324 323 323 325 325 326 326 327 327 329 328 328 329 329 328 328 327 327 328 328 328 328 327 327 327 326 327 325 326 325 317 314 316 319 320 320 320 321 322 322 321 320
325 325 325 326 326 325 325 325 326 325 326 329 328 328 327 327 328 328 328 328 328 327 327 327 326 327 326 325 325 325 321 317 320 320 321 322 323 323 322 320 316 313 313
324 324 324 325 324 325 325 325 324 324 325 329 327 328 328 328 328 327 328 327 326 327 326 326 326 326 326 325 326 324 319 319 321 322 322 322 322 319 314 312 312 311 308
325 325 325 325 325 324 325 325 324 325 325 327 327 328 328 328 328 327 328 327 327 327 327 326 326 326 326 325 326 318 317 321 323 322 322 318 313 312 313 312 310 307 298
326 326 327 327 325 325 325 326 325 326 326 327 326 327 328 326 326 326 327 326 326 326 326 326 327 326 326 325 320 314 317 320 322 322 320 314 312 313 311 310 308 299 296
326 327 326 328 327 326 326 326 326 325 328 327 328 328 327 327 326 324 326 325 324 324 325 325 327 326 318 312 312 318 321 322 322 322 318 313 312 312 311 309 302 296 296
327 326 327 327 327 327 326 327 326 327 326 326 328 327 326 325 325 326 325 324 321 319 317 318 317 316 319 321 321 321 321 323 319 314 313 314 313 311 310 307 298 295 296

GFSMA_850_thetae_024.txt.gz
Theta_e
331 331 331 331 329 329 329 327 327 327 329 329 327 328 329 330 327 329 331 328 315 321 319 317 326 335 337 339 340 341 337 335 333 331 333 331 329 328 327 329 330 330 329
331 332 331 331 329 330 330 328 328 327 326 327 329 329 330 328 328 330 331 327 314 317 320 317 325 334 337 338 339 340 336 335 333 331 330 329 327 326 326 329 330 329 324
331 329 330 330 328 327 325 326 326 327 326 327 328 329 329 330 328 329 329 325 324 318 321 318 326 334 337 338 339 338 337 334 332 331 330 328 328 326 329 330 327 320 311
327 328 328 327 327 328 326 327 327 326 327 326 328 326 328 328 328 328 325 324 326 328 327 318 328 333 337 339 339 333 334 330 332 331 330 329 327 329 331 326 317 311 308
329 329 327 328 329 326 326 325 328 327 327 327 325 325 326 328 328 325 323 326 329 330 329 331 330 333 337 339 339 337 334 331 333 331 331 328 330 330 325 313 311 308 307
330 328 328 329 327 325 326 326 327 326 326 326 326 326 328 327 327 324 325 328 329 330 331 332 332 333 335 338 339 339 336 334 333 332 329 327 329 325 312 312 308 308 308
329 328 330 328 327 325 323 325 324 324 324 325 327 326 326 326 326 325 326 328 327 328 329 332 332 333 334 339 339 336 334 334 332 329 326 327 323 311 313 312 309 309 310
329 330 328 327 326 323 322 323 323 324 326 323 325 327 327 326 326 328 329 328 328 331 333 333 333 331 327 325 335 334 333 333 329 326 326 321 313 317 314 311 323 311 310
328 327 326 325 325 324 326 323 323 323 324 323 324 328 327 325 326 328 329 328 329 331 332 332 333 333 330 328 328 325 332 331 328 325 321 315 321 320 324 323 309 310 310
327 327 324 325 326 323 322 324 324 327 324 327 326 328 328 327 325 330 328 328 329 330 330 332 333 332 331 330 328 327 330 331 327 319 316 325 325 322 323 309 310 311 309
327 325 326 327 326 324 323 326 327 325 325 326 327 326 326 326 329 330 331 329 329 332 331 333 333 333 330 330 334 333 332 328 320 320 325 323 324 320 310 310 311 310 308
327 327 328 325 324 324 325 325 327 326 326 325 326 326 327 327 327 328 331 330 331 332 332 332 333 332 331 331 331 330 329 324 317 323 323 324 324 313 311 310 311 309 308
326 327 326 326 324 325 326 327 326 329 326 324 325 327 328 328 329 327 331 329 331 332 331 331 332 332 332 330 331 330 324 318 323 323 323 324 319 313 311 310 311 309 309
327 327 326 325 327 327 327 326 327 327 326 325 325 324 326 328 323 328 330 330 330 330 329 327 328 329 328 328 329 324 321 324 323 324 325 322 315 312 310 311 310 310 310
328 326 326 326 327 326 327 326 325 328 327 326 326 325 325 326 329 328 329 330 330 329 328 329 328 329 328 328 324 322 323 324 324 325 324 316 316 311 310 311 310 311 311
328 328 327 328 326 326 327 326 327 327 328 326 323 323 325 329 328 328 329 330 329 328 328 329 326 327 326 326 323 323 324 325 325 324 322 317 313 310 311 311 312 312 313
328 329 329 329 328 325 324 325 327 328 325 326 326 327 327 327 328 327 328 326 325 325 327 328 328 328 326 324 323 325 325 325 322 321 317 313 312 312 313 311 311 312 314
328 328 328 329 324 323 324 325 326 328 327 327 326 327 328 328 328 326 326 325 327 328 328 327 327 326 325 325 324 325 325 325 323 316 313 313 314 312 311 311 313 316 317
328 328 329 329 321 324 326 325 326 324 326 328 328 329 329 329 328 326 327 327 329 328 327 326 326 326 325 325 325 326 325 322 317 315 312 311 311 311 312 315 317 318 319
328 328 328 324 325 325 325 324 325 326 326 328 330 329 329 329 327 326 327 329 329 328 327 327 326 325 325 325 326 325 322 321 315 313 311 310 312 316 319 320 321 321 319
330 330 328 325 325 326 327 328 331 331 328 329 330 330 330 330 329 326 328 328 328 328 327 326 326 326 325 325 326 324 320 315 314 316 319 322 321 321 321 319 316 312 312
330 330 330 326 325 325 325 325 326 329 329 328 328 328 328 328 328 328 328 328 328 328 327 326 325 326 326 326 325 321 317 320 321 321 321 317 316 318 318 312 312 311 307
330 330 330 325 325 325 325 325 325 327 329 329 328 329 328 327 328 328 327 327 328 327 326 326 326 326 326 325 325 323 322 323 323 321 318 316 315 316 312 313 311 308 297
328 326 326 325 324 325 325 324 325 327 327 328 329 327 329 328 327 327 327 327 327 327 327 326 325 325 325 325 323 321 325 325 323 320 318 316 313 312 313 312 309 299 296
326 327 327 327 326 325 326 326 327 327 327 328 329 328 327 327 328 327 327 327 326 326 326 326 325 325 326 326 323 322 321 323 323 322 320 317 314 311 310 310 305 296 296
328 327 328 328 327 326 326 327 327 327 327 328 327 329 326 325 326 324 325 326 325 326 326 326 325 326 325 324 315 320 324 324 324 322 319 318 316 314 313 309 304 296 296

GFSMA_850_thetae_030.txt.gz
Theta_e
332 332 334 335 334 333 332 331 331 329 329 328 327 327 329 328 327 330 330 330 330 329 329 329 327 312 318 333 337 340 340 341 339 335 333 334 332 331 330 330 332 333 333
330 332 334 334 333 332 331 331 331 329 328 329 327 326 326 327 328 326 329 331 330 327 326 327 322 313 315 329 334 339 340 341 337 335 335 333 333 331 331 331 333 333 332
330 330 334 335 333 332 331 330 329 328 328 328 327 327 326 327 328 329 328 331 329 328 326 320 317 315 313 324 333 337 340 339 337 336 335 333 332 332 330 332 332 330 330
331 331 333 333 331 332 332 330 328 328 328 327 328 328 329 326 328 326 328 328 329 329 328 326 314 317 314 319 332 336 339 338 338 336 335 334 333 331 330 330 326 331 323
333 331 332 332 333 332 330 328 328 327 326 326 326 326 326 326 327 328 327 325 325 329 329 330 327 319 315 319 330 336 338 338 338 332 333 332 331 329 329 329 329 323 309
335 334 331 333 333 331 329 330 328 325 326 327 327 326 327 326 325 325 325 329 326 325 329 332 332 319 316 324 330 336 337 338 335 331 331 331 329 328 327 329 322 316 311
335 334 332 333 332 330 330 329 328 325 326 327 326 325 325 325 328 327 329 325 326 328 328 330 332 331 320 326 333 337 338 337 334 331 332 330 329 328 327 328 317 309 315
333 333 332 332 331 330 329 328 327 325 325 323 322 324 326 325 326 327 328 326 327 330 327 330 332 326 330 330 335 337 337 336 334 333 332 331 329 327 329 312 309 313 315
331 330 332 330 330 329 328 326 325 324 325 325 324 324 326 327 324 327 327 328 328 326 329 331 328 331 330 331 335 334 337 337 335 333 331 329 328 329 317 308 311 316 316
331 329 330 329 329 328 327 327 327 325 324 325 326 324 325 327 327 327 327 328 326 326 331 330 329 329 330 331 331 335 335 333 334 332 331 330 330 319 309 310 320 312 310
332 329 328 328 327 326 327 327 326 325 325 324 326 324 324 327 326 326 327 323 325 327 330 328 330 330 329 329 330 332 330 330 331 333 330 330 323 310 310 323 319 311 308
330 329 328 327 326 327 326 324 325 325 326 325 326 326 324 327 326 327 327 323 327 327 325 324 328 332 332 327 323 329 326 325 327 330 330 322 313 316 324 319 311 310 308
329 331 328 328 327 326 324 326 325 326 326 326 326 326 325 328 329 328 325 327 328 330 331 331 331 333 330 327 326 327 328 328 331 328 318 315 322 324 322 310 311 309 308
328 328 328 327 327 327 326 327 327 327 326 326 326 326 327 328 329 328 327 328 330 331 330 330 332 333 332 331 330 328 331 330 328 325 320 324 324 323 314 311 311 309 308
328 329 329 327 328 328 328 329 328 327 326 326 327 326 325 327 328 329 323 326 327 328 330 330 329 331 331 330 330 330 328 327 322 323 324 324 321 316 316 312 310 309 308
331 327 327 326 327 328 328 327 325 326 323 324 325 326 327 326 325 327 328 329 327 328 328 330 329 331 331 330 329 329 323 323 324 324 324 323 315 314 312 311 310 311 310
330 329 326 327 328 328 327 327 325 324 323 324 324 324 326 327 327 329 329 329 329 329 328 327 327 328 328 329 328 324 324 324 324 324 324 320 313 314 313 312 311 311 312
328 328 329 329 329 329 327 327 329 329 328 326 326 327 324 328 328 329 329 329 329 328 327 328 328 327 328 326 323 324 324 324 324 323 321 316 313 312 312 313 313 312 313
328 329 329 329 329 328 326 329 329 328 326 327 327 327 327 329 328 328 326 325 326 327 326 326 325 323 323 323 325 324 325 324 323 321 318 314 312 313 312 311 312 313 315
328 329 329 329 328 327 328 328 329 329 329 329 327 328 326 328 327 327 326 325 327 327 327 324 323 322 323 323 324 324 323 322 321 319 318 314 313 312 311 312 314 316 319
328 330 330 328 326 328 327 328 330 330 330 330 330 329 328 327 326 327 327 328 327 326 324 324 323 323 324 324 324 323 322 321 319 317 315 314 312 311 312 315 319 320 315
328 330 327 327 329 327 328 329 329 330 330 330 330 329 328 327 328 328 328 328 327 325 325 324 324 324 324 324 323 323 323 319 315 315 313 312 311 312 317 320 319 314 312
329 328 329 328 327 326 327 328 329 330 330 330 329 329 328 328 328 329 329 328 326 325 325 324 324 323 324 324 324 322 318 315 314 312 313 315 318 320 319 318 314 312 305
328 329 329 330 325 325 326 328 330 330 330 330 330 329 328 329 328 327 328 327 326 325 325 324 324 324 324 324 323 321 314 313 315 317 318 317 317 319 319 314 312 310 297
328 328 330 328 325 324 325 328 329 330 329 329 329 328 328 328 327 327 328 327 326 325 325 325 324 324 323 322 318 317 319 319 319 318 318 319 317 317 312 311 311 304 297
329 328 328 329 325 324 325 328 329 329 329 329 328 328 328 327 327 327 328 327 326 325 325 325 325 324 324 321 318 324 323 320 319 319 319 318 318 315 313 312 311 306 296

GFSMA_850_thetae_033.txt.gz
Theta_e
331 335 338 331 331 333 333 332 333 331 330 329 328 329 329 328 328 329 329 330 329 331 331 329 327 328 327 313 330 336 340 340 340 338 334 334 330 332 332 331 330 330 329
337 337 332 332 335 335 334 333 331 331 331 329 328 327 326 326 326 327 329 328 330 331 330 329 327 327 323 312 328 335 339 340 341 339 336 335 333 333 332 331 330 330 331
338 335 331 334 334 334 334 331 331 330 330 328 328 327 326 326 326 326 327 327 330 330 329 327 326 325 317 312 327 334 339 336 340 339 337 334 334 333 331 331 331 333 334
335 332 330 332 334 334 331 331 332 330 328 328 328 327 327 326 327 327 327 329 329 329 328 328 318 317 316 313 323 332 338 336 340 337 335 335 333 333 331 331 334 329 330
332 331 332 329 332 332 333 332 331 329 328 327 327 327 327 328 328 325 327 327 328 328 327 328 329 316 318 313 318 331 334 339 338 337 335 334 333 332 331 334 328 330 316
332 334 333 332 332 332 332 331 329 328 328 325 326 327 326 325 325 325 326 326 326 326 328 327 329 328 319 315 315 328 334 338 337 337 335 333 333 332 331 331 328 310 309
333 334 333 334 332 331 332 330 329 329 327 325 327 328 325 324 325 324 326 324 325 326 326 327 329 331 319 316 319 326 334 337 338 336 335 333 331 330 330 326 318 316 324
333 334 332 330 331 331 329 329 329 328 326 326 326 325 324 324 324 324 325 328 325 325 328 328 330 330 325 318 324 329 335 335 337 337 332 331 330 328 328 325 318 316 320
334 334 331 329 330 328 328 328 327 326 324 324 323 321 324 324 324 325 326 328 327 326 328 330 329 330 325 325 327 332 335 335 337 333 331 331 329 329 328 314 310 318 323
334 333 330 328 328 328 328 326 326 326 324 324 324 324 324 326 326 324 327 327 327 325 328 327 330 326 324 325 328 334 335 336 336 333 332 331 330 328 324 309 315 323 319
332 330 331 328 327 326 326 326 326 326 325 325 324 325 324 324 324 326 325 326 327 324 325 328 326 324 327 328 331 333 336 335 335 334 332 332 329 328 309 312 320 316 309
333 330 329 327 326 325 326 325 325 325 325 325 325 326 325 324 324 322 326 326 326 323 328 329 325 327 329 329 330 334 334 331 333 332 331 330 327 311 310 317 321 312 308
329 328 327 327 326 325 325 325 325 325 326 326 326 326 326 324 327 326 326 325 323 326 326 325 327 327 329 327 328 331 330 329 323 328 330 327 314 310 321 324 319 310 313
328 327 327 326 325 325 325 326 326 327 326 326 326 326 326 326 326 328 327 325 326 327 327 326 329 330 327 326 325 327 328 326 328 330 325 312 310 320 324 315 314 318 309
328 327 328 326 327 326 327 327 327 326 325 325 326 326 326 326 327 326 325 327 327 328 327 329 330 330 327 327 327 327 327 329 331 327 324 317 322 324 320 311 314 313 310
330 327 326 326 327 326 327 327 328 326 324 325 325 325 325 325 326 325 326 325 327 326 326 327 328 330 330 330 328 330 328 327 323 322 322 324 323 316 313 312 312 313 309
330 326 326 327 326 325 327 326 325 325 323 323 324 324 324 325 327 325 325 324 327 326 325 327 328 330 330 329 327 327 325 322 323 324 324 322 316 312 312 312 311 310 314
327 328 329 328 328 328 327 326 326 327 327 326 325 327 324 327 327 328 329 328 326 328 327 328 329 329 329 328 326 323 324 324 324 324 323 322 315 312 313 315 315 314 313
329 328 330 329 328 328 326 328 329 327 326 326 326 326 327 326 328 328 328 328 328 328 327 327 328 328 324 323 323 324 324 323 323 322 322 321 317 314 312 313 313 312 313
328 328 329 328 327 328 327 327 327 328 328 326 327 327 327 327 327 326 326 327 327 327 326 328 325 323 323 324 324 323 323 323 322 322 322 317 314 313 312 312 312 314 316
328 328 329 329 326 330 328 326 328 329 329 329 329 327 326 327 327 327 326 325 326 326 325 324 324 323 323 324 324 323 323 322 321 321 319 313 314 313 312 312 314 318 319
328 329 329 326 324 327 326 329 330 329 330 330 329 328 327 327 327 327 326 326 327 326 324 323 323 324 324 324 323 324 323 322 319 315 314 314 314 312 312 314 319 318 313
329 328 328 326 327 326 328 329 330 330 330 330 329 328 327 329 327 327 328 327 326 326 325 323 323 325 323 323 323 323 323 323 321 316 315 313 313 312 316 318 318 313 311
328 328 328 326 325 326 329 329 329 330 329 329 329 328 328 328 328 328 327 326 325 325 323 323 324 324 324 324 324 324 323 319 316 313 313 312 316 317 318 317 314 312 307
328 328 328 325 324 326 328 329 329 329 329 329 328 328 328 327 328 328 327 325 325 324 323 323 324 324 324 324 324 321 317 314 313 313 315 316 318 318 318 316 312 312 303
329 328 328 326 325 324 328 329 329 328 329 329 328 328 327 327 327 328 327 326 326 324 323 323 324 324 323 322 318 316 315 313 312 317 317 319 318 317 315 312 312 311 303